M I D A S
Marine Information and Data Acquisition System
Tripno 1333 of the Zeeleeuw from 2007-06-07 05:49:06 to 2007-06-07 10:22:00
Back to CruiseResearch ActivitiesStationsMapUnderway DataData graphs

EquipmentUnitsComments
TimeDGPSUTC
LatitudeDGPSDM.mWGS84
LongitudeDGPSDM.mWGS84
SpeedMeteo Stationm/sRelative wind speed
DirectionMeteo StationdegRelative wind direction
TemperatureMeteo Stationdeg CelciusAir temperature
PressureMeteo StationPaAtmospheric pressure
HumidityMeteo Station%Relative humidity
Missing or incorrect values are displayed as -999
Metereological data collected by the RV Zeeleeuw from 2007-06-07 05:53:11 to 2007-06-07 10:32:34
Time Latitude Longitude Speed Direction Temperature Pressure Humidity
2007-06-07 05:54 51°13.598 2°56.067 -999 -999 -999 -999 -999
2007-06-07 05:55 51°13.643 2°55.95 -999 -999 -999 -999 -999
2007-06-07 05:56 51°13.697 2°55.826 -999 -999 -999 -999 -999
2007-06-07 05:57 51°13.764 2°55.704 -999 -999 -999 -999 -999
2007-06-07 05:58 51°13.848 2°55.638 -999 -999 -999 -999 -999
2007-06-07 05:59 51°13.902 2°55.638 -999 -999 -999 -999 -999
2007-06-07 06:00 51°13.929 2°55.659 -999 -999 -999 -999 -999
2007-06-07 06:01 51°13.942 2°55.681 -999 -999 -999 -999 -999
2007-06-07 06:02 51°13.946 2°55.698 -999 -999 -999 -999 -999
2007-06-07 06:03 51°13.944 2°55.7 -999 -999 -999 -999 -999
2007-06-07 06:04 51°13.987 2°55.587 -999 -999 -999 -999 -999
2007-06-07 06:05 51°14.12 2°55.434 -999 -999 -999 -999 -999
2007-06-07 06:06 51°14.251 2°55.273 -999 -999 -999 -999 -999
2007-06-07 06:07 51°14.37 2°55.068 -999 -999 -999 -999 -999
2007-06-07 06:08 51°14.543 2°54.877 -999 -999 -999 -999 -999
2007-06-07 06:09 51°14.728 2°54.695 -999 -999 -999 -999 -999
2007-06-07 06:10 51°14.905 2°54.495 -999 -999 -999 -999 -999
2007-06-07 06:11 51°15.06 2°54.258 -999 -999 -999 -999 -999
2007-06-07 06:12 51°15.17 2°53.97 -999 -999 -999 -999 -999
2007-06-07 06:13 51°15.215 2°53.635 -999 -999 -999 -999 -999
2007-06-07 06:14 51°15.261 2°53.301 -999 -999 -999 -999 -999
2007-06-07 06:15 51°15.308 2°52.967 -999 -999 -999 -999 -999
2007-06-07 06:16 51°15.349 2°52.632 -999 -999 -999 -999 -999
2007-06-07 06:17 51°15.378 2°52.297 -999 -999 -999 -999 -999
2007-06-07 06:18 51°15.406 2°51.959 -999 -999 -999 -999 -999
2007-06-07 06:19 51°15.428 2°51.623 -999 -999 -999 -999 -999
2007-06-07 06:20 51°15.429 2°51.282 -999 -999 -999 -999 -999
2007-06-07 06:21 51°15.43 2°50.941 -999 -999 -999 -999 -999
2007-06-07 06:22 51°15.429 2°50.601 -999 -999 -999 -999 -999
2007-06-07 06:23 51°15.411 2°50.261 -999 -999 -999 -999 -999
2007-06-07 06:24 51°15.397 2°49.92 -999 -999 -999 -999 -999
2007-06-07 06:25 51°15.385 2°49.578 -999 -999 -999 -999 -999
2007-06-07 06:26 51°15.374 2°49.237 -999 -999 -999 -999 -999
2007-06-07 06:27 51°15.362 2°48.894 -999 -999 -999 -999 -999
2007-06-07 06:28 51°15.354 2°48.548 -999 -999 -999 -999 -999
2007-06-07 06:29 51°15.343 2°48.205 -999 -999 -999 -999 -999
2007-06-07 06:30 51°15.33 2°47.861 -999 -999 -999 -999 -999
2007-06-07 06:31 51°15.319 2°47.517 -999 -999 -999 -999 -999
2007-06-07 06:32 51°15.308 2°47.171 -999 -999 -999 -999 -999
2007-06-07 06:33 51°15.297 2°46.82 -999 -999 -999 -999 -999
2007-06-07 06:34 51°15.286 2°46.473 -999 -999 -999 -999 -999
2007-06-07 06:35 51°15.277 2°46.128 -999 -999 -999 -999 -999
2007-06-07 06:36 51°15.266 2°45.784 -999 -999 -999 -999 -999
2007-06-07 06:37 51°15.255 2°45.442 -999 -999 -999 -999 -999
2007-06-07 06:38 51°15.249 2°45.094 -999 -999 -999 -999 -999
2007-06-07 06:39 51°15.239 2°44.748 -999 -999 -999 -999 -999
2007-06-07 06:40 51°15.227 2°44.405 -999 -999 -999 -999 -999
2007-06-07 06:41 51°15.219 2°44.06 -999 -999 -999 -999 -999
2007-06-07 06:42 51°15.209 2°43.715 -999 -999 -999 -999 -999
2007-06-07 06:43 51°15.203 2°43.366 -999 -999 -999 -999 -999
2007-06-07 06:44 51°15.192 2°43.022 -999 -999 -999 -999 -999
2007-06-07 06:45 51°15.227 2°42.683 -999 -999 -999 -999 -999
2007-06-07 06:46 51°15.317 2°42.364 -999 -999 -999 -999 -999
2007-06-07 06:47 51°15.408 2°42.045 -999 -999 -999 -999 -999
2007-06-07 06:48 51°15.498 2°41.726 -999 -999 -999 -999 -999
2007-06-07 06:49 51°15.589 2°41.402 -999 -999 -999 -999 -999
2007-06-07 06:50 51°15.713 2°41.11 -999 -999 -999 -999 -999
2007-06-07 06:51 51°15.894 2°40.907 -999 -999 -999 -999 -999
2007-06-07 06:52 51°16.094 2°40.746 -999 -999 -999 -999 -999
2007-06-07 06:53 51°16.286 2°40.562 -999 -999 -999 -999 -999
2007-06-07 06:54 51°16.462 2°40.354 -999 -999 -999 -999 -999
2007-06-07 06:55 51°16.634 2°40.14 -999 -999 -999 -999 -999
2007-06-07 06:56 51°16.807 2°39.922 -999 -999 -999 -999 -999
2007-06-07 06:57 51°16.977 2°39.702 -999 -999 -999 -999 -999
2007-06-07 06:58 51°17.148 2°39.48 -999 -999 -999 -999 -999
2007-06-07 06:59 51°17.319 2°39.261 -999 -999 -999 -999 -999
2007-06-07 07:00 51°17.495 2°39.043 -999 -999 -999 -999 -999
2007-06-07 07:01 51°17.673 2°38.828 -999 -999 -999 -999 -999
2007-06-07 07:02 51°17.85 2°38.613 -999 -999 -999 -999 -999
2007-06-07 07:03 51°18.031 2°38.402 -999 -999 -999 -999 -999
2007-06-07 07:04 51°18.21 2°38.187 -999 -999 -999 -999 -999
2007-06-07 07:05 51°18.389 2°37.974 -999 -999 -999 -999 -999
2007-06-07 07:06 51°18.571 2°37.755 -999 -999 -999 -999 -999
2007-06-07 07:07 51°18.743 2°37.535 -999 -999 -999 -999 -999
2007-06-07 07:08 51°18.916 2°37.313 -999 -999 -999 -999 -999
2007-06-07 07:09 51°19.088 2°37.092 -999 -999 -999 -999 -999
2007-06-07 07:10 51°19.262 2°36.873 -999 -999 -999 -999 -999
2007-06-07 07:11 51°19.432 2°36.665 -999 -999 -999 -999 -999
2007-06-07 07:12 51°19.593 2°36.47 -999 -999 -999 -999 -999
2007-06-07 07:13 51°19.771 2°36.409 -999 -999 -999 -999 -999
2007-06-07 07:14 51°19.876 2°36.542 -999 -999 -999 -999 -999
2007-06-07 07:15 51°19.953 2°36.66 -999 -999 -999 -999 -999
2007-06-07 07:16 51°20.017 2°36.763 -999 -999 -999 -999 -999
2007-06-07 07:17 51°20.075 2°36.872 -999 -999 -999 -999 -999
2007-06-07 07:18 51°20.124 2°36.95 -999 -999 -999 -999 -999
2007-06-07 07:19 51°20.149 2°36.994 -999 -999 -999 -999 -999
2007-06-07 07:20 51°20.164 2°37.038 -999 -999 -999 -999 -999
2007-06-07 07:21 51°20.167 2°37.085 -999 -999 -999 -999 -999
2007-06-07 07:22 51°20.167 2°37.115 -999 -999 -999 -999 -999
2007-06-07 07:23 51°20.163 2°37.129 -999 -999 -999 -999 -999
2007-06-07 07:24 51°20.156 2°37.133 -999 -999 -999 -999 -999
2007-06-07 07:25 51°20.151 2°37.131 -999 -999 -999 -999 -999
2007-06-07 07:26 51°20.146 2°37.127 -999 -999 -999 -999 -999
2007-06-07 07:27 51°20.143 2°37.12 -999 -999 -999 -999 -999
2007-06-07 07:28 51°20.139 2°37.116 -999 -999 -999 -999 -999
2007-06-07 07:29 51°20.134 2°37.113 -999 -999 -999 -999 -999
2007-06-07 07:30 51°20.129 2°37.109 -999 -999 -999 -999 -999
2007-06-07 07:31 51°20.124 2°37.104 -999 -999 -999 -999 -999
2007-06-07 07:32 51°20.119 2°37.098 -999 -999 -999 -999 -999
2007-06-07 07:33 51°20.114 2°37.091 -999 -999 -999 -999 -999
2007-06-07 07:34 51°20.109 2°37.086 -999 -999 -999 -999 -999
2007-06-07 07:35 51°20.053 2°37.095 -999 -999 -999 -999 -999
2007-06-07 07:36 51°20.023 2°37.045 -999 -999 -999 -999 -999
2007-06-07 07:37 51°20.021 2°37.021 -999 -999 -999 -999 -999
2007-06-07 07:38 51°20.014 2°37.024 -999 -999 -999 -999 -999
2007-06-07 07:39 51°20.004 2°37.029 -999 -999 -999 -999 -999
2007-06-07 07:40 51°19.965 2°36.994 -999 -999 -999 -999 -999
2007-06-07 07:41 51°19.95 2°36.99 -999 -999 -999 -999 -999
2007-06-07 07:42 51°19.943 2°36.985 -999 -999 -999 -999 -999
2007-06-07 07:43 51°19.937 2°36.981 -999 -999 -999 -999 -999
2007-06-07 07:44 51°19.93 2°36.974 -999 -999 -999 -999 -999
2007-06-07 07:45 51°19.923 2°36.965 -999 -999 -999 -999 -999
2007-06-07 07:46 51°19.916 2°36.959 -999 -999 -999 -999 -999
2007-06-07 07:47 51°19.907 2°36.973 -999 -999 -999 -999 -999
2007-06-07 07:48 51°19.904 2°36.999 -999 -999 -999 -999 -999
2007-06-07 07:49 51°19.912 2°37.031 -999 -999 -999 -999 -999
2007-06-07 07:50 51°19.931 2°37.047 -999 -999 -999 -999 -999
2007-06-07 07:51 51°19.957 2°37.026 -999 -999 -999 -999 -999
2007-06-07 07:52 51°19.987 2°36.985 -999 -999 -999 -999 -999
2007-06-07 07:53 51°20.008 2°36.948 -999 -999 -999 -999 -999
2007-06-07 07:54 51°20.012 2°36.919 -999 -999 -999 -999 -999
2007-06-07 07:55 51°20.008 2°36.899 -999 -999 -999 -999 -999
2007-06-07 07:56 51°19.999 2°36.884 -999 -999 -999 -999 -999
2007-06-07 07:57 51°19.989 2°36.87 -999 -999 -999 -999 -999
2007-06-07 07:58 51°19.981 2°36.857 -999 -999 -999 -999 -999
2007-06-07 07:59 51°19.972 2°36.846 -999 -999 -999 -999 -999
2007-06-07 08:00 51°19.962 2°36.835 -999 -999 -999 -999 -999
2007-06-07 08:01 51°19.96 2°36.799 -999 -999 -999 -999 -999
2007-06-07 08:02 51°19.985 2°36.751 -999 -999 -999 -999 -999
2007-06-07 08:03 51°20.02 2°36.742 -999 -999 -999 -999 -999
2007-06-07 08:04 51°20.036 2°36.743 -999 -999 -999 -999 -999
2007-06-07 08:05 51°20.036 2°36.741 -999 -999 -999 -999 -999
2007-06-07 08:06 51°20.027 2°36.732 -999 -999 -999 -999 -999
2007-06-07 08:07 51°20.02 2°36.744 -999 -999 -999 -999 -999
2007-06-07 08:08 51°20.025 2°36.775 -999 -999 -999 -999 -999
2007-06-07 08:09 51°20.023 2°36.787 -999 -999 -999 -999 -999
2007-06-07 08:10 51°20.012 2°36.783 -999 -999 -999 -999 -999
2007-06-07 08:11 51°20 2°36.768 -999 -999 -999 -999 -999
2007-06-07 08:12 51°19.99 2°36.746 -999 -999 -999 -999 -999
2007-06-07 08:13 51°19.982 2°36.725 -999 -999 -999 -999 -999
2007-06-07 08:14 51°19.971 2°36.773 -999 -999 -999 -999 -999
2007-06-07 08:15 51°19.995 2°36.82 -999 -999 -999 -999 -999
2007-06-07 08:16 51°20.017 2°36.822 -999 -999 -999 -999 -999
2007-06-07 08:17 51°20.018 2°36.81 -999 -999 -999 -999 -999
2007-06-07 08:18 51°20.01 2°36.791 -999 -999 -999 -999 -999
2007-06-07 08:19 51°19.993 2°36.771 -999 -999 -999 -999 -999
2007-06-07 08:20 51°19.977 2°36.762 -999 -999 -999 -999 -999
2007-06-07 08:21 51°19.963 2°36.756 -999 -999 -999 -999 -999
2007-06-07 08:22 51°19.951 2°36.745 -999 -999 -999 -999 -999
2007-06-07 08:23 51°19.938 2°36.731 -999 -999 -999 -999 -999
2007-06-07 08:24 51°19.925 2°36.715 -999 -999 -999 -999 -999
2007-06-07 08:25 51°19.913 2°36.699 -999 -999 -999 -999 -999
2007-06-07 08:26 51°19.901 2°36.681 -999 -999 -999 -999 -999
2007-06-07 08:27 51°19.893 2°36.651 -999 -999 -999 -999 -999
2007-06-07 08:28 51°19.908 2°36.583 -999 -999 -999 -999 -999
2007-06-07 08:29 51°19.957 2°36.57 -999 -999 -999 -999 -999
2007-06-07 08:30 51°20.005 2°36.615 -999 -999 -999 -999 -999
2007-06-07 08:31 51°20.022 2°36.641 -999 -999 -999 -999 -999
2007-06-07 08:32 51°20.032 2°36.67 -999 -999 -999 -999 -999
2007-06-07 08:33 51°20.066 2°36.771 -999 -999 -999 -999 -999
2007-06-07 08:34 51°20.065 2°36.826 -999 -999 -999 -999 -999
2007-06-07 08:35 51°20.057 2°36.852 -999 -999 -999 -999 -999
2007-06-07 08:36 51°20.048 2°36.861 -999 -999 -999 -999 -999
2007-06-07 08:37 51°20.037 2°36.858 -999 -999 -999 -999 -999
2007-06-07 08:38 51°20.025 2°36.846 -999 -999 -999 -999 -999
2007-06-07 08:39 51°20.009 2°36.86 -999 -999 -999 -999 -999
2007-06-07 08:40 51°19.977 2°36.904 -999 -999 -999 -999 -999
2007-06-07 08:41 51°19.942 2°36.935 -999 -999 -999 -999 -999
2007-06-07 08:42 51°19.918 2°36.951 -999 -999 -999 -999 -999
2007-06-07 08:43 51°19.9 2°36.954 -999 -999 -999 -999 -999
2007-06-07 08:44 51°19.885 2°36.949 -999 -999 -999 -999 -999
2007-06-07 08:45 51°19.873 2°36.939 -999 -999 -999 -999 -999
2007-06-07 08:46 51°19.859 2°36.94 -999 -999 -999 -999 -999
2007-06-07 08:47 51°19.803 2°36.964 -999 -999 -999 -999 -999
2007-06-07 08:48 51°19.75 2°36.876 -999 -999 -999 -999 -999
2007-06-07 08:49 51°19.734 2°36.806 -999 -999 -999 -999 -999
2007-06-07 08:50 51°19.723 2°36.748 -999 -999 -999 -999 -999
2007-06-07 08:51 51°19.714 2°36.699 -999 -999 -999 -999 -999
2007-06-07 08:52 51°19.704 2°36.654 -999 -999 -999 -999 -999
2007-06-07 08:53 51°19.693 2°36.613 -999 -999 -999 -999 -999
2007-06-07 08:54 51°19.681 2°36.576 -999 -999 -999 -999 -999
2007-06-07 08:55 51°19.666 2°36.54 -999 -999 -999 -999 -999
2007-06-07 08:56 51°19.652 2°36.506 -999 -999 -999 -999 -999
2007-06-07 08:57 51°19.638 2°36.439 -999 -999 -999 -999 -999
2007-06-07 08:58 51°19.57 2°36.388 -999 -999 -999 -999 -999
2007-06-07 08:59 51°19.472 2°36.512 -999 -999 -999 -999 -999
2007-06-07 09:00 51°19.307 2°36.695 -999 -999 -999 -999 -999
2007-06-07 09:01 51°19.142 2°36.891 -999 -999 -999 -999 -999
2007-06-07 09:02 51°18.98 2°37.086 -999 -999 -999 -999 -999
2007-06-07 09:03 51°18.817 2°37.281 -999 -999 -999 -999 -999
2007-06-07 09:04 51°18.654 2°37.476 -999 -999 -999 -999 -999
2007-06-07 09:05 51°18.49 2°37.674 -999 -999 -999 -999 -999
2007-06-07 09:06 51°18.328 2°37.876 -999 -999 -999 -999 -999
2007-06-07 09:07 51°18.164 2°38.074 -999 -999 -999 -999 -999
2007-06-07 09:08 51°18 2°38.265 -999 -999 -999 -999 -999
2007-06-07 09:09 51°17.836 2°38.46 -999 -999 -999 -999 -999
2007-06-07 09:10 51°17.676 2°38.646 -999 -999 -999 -999 -999
2007-06-07 09:11 51°17.511 2°38.842 -999 -999 -999 -999 -999
2007-06-07 09:12 51°17.345 2°39.047 -999 -999 -999 -999 -999
2007-06-07 09:13 51°17.188 2°39.235 -999 -999 -999 -999 -999
2007-06-07 09:14 51°17.028 2°39.422 -999 -999 -999 -999 -999
2007-06-07 09:15 51°16.865 2°39.609 -999 -999 -999 -999 -999
2007-06-07 09:16 51°16.7 2°39.801 -999 -999 -999 -999 -999
2007-06-07 09:17 51°16.532 2°39.989 -999 -999 -999 -999 -999
2007-06-07 09:18 51°16.362 2°40.181 -999 -999 -999 -999 -999
2007-06-07 09:19 51°16.193 2°40.378 -999 -999 -999 -999 -999
2007-06-07 09:20 51°16.035 2°40.577 -999 -999 -999 -999 -999
2007-06-07 09:21 51°15.876 2°40.789 -999 -999 -999 -999 -999
2007-06-07 09:22 51°15.722 2°40.994 -999 -999 -999 -999 -999
2007-06-07 09:23 51°15.598 2°41.25 -999 -999 -999 -999 -999
2007-06-07 09:24 51°15.489 2°41.508 -999 -999 -999 -999 -999
2007-06-07 09:25 51°15.43 2°41.805 -999 -999 -999 -999 -999
2007-06-07 09:26 51°15.421 2°42.1 -999 -999 -999 -999 -999
2007-06-07 09:27 51°15.414 2°42.401 -999 -999 -999 -999 -999
2007-06-07 09:28 51°15.402 2°42.707 -999 -999 -999 -999 -999
2007-06-07 09:29 51°15.391 2°43.006 -999 -999 -999 -999 -999
2007-06-07 09:30 51°15.374 2°43.313 -999 -999 -999 -999 -999
2007-06-07 09:31 51°15.358 2°43.611 -999 -999 -999 -999 -999
2007-06-07 09:32 51°15.341 2°43.913 -999 -999 -999 -999 -999
2007-06-07 09:33 51°15.321 2°44.214 -999 -999 -999 -999 -999
2007-06-07 09:34 51°15.302 2°44.512 -999 -999 -999 -999 -999
2007-06-07 09:35 51°15.283 2°44.816 -999 -999 -999 -999 -999
2007-06-07 09:36 51°15.263 2°45.106 -999 -999 -999 -999 -999
2007-06-07 09:37 51°15.243 2°45.408 -999 -999 -999 -999 -999
2007-06-07 09:38 51°15.223 2°45.702 -999 -999 -999 -999 -999
2007-06-07 09:39 51°15.204 2°46.008 -999 -999 -999 -999 -999
2007-06-07 09:40 51°15.185 2°46.306 -999 -999 -999 -999 -999
2007-06-07 09:41 51°15.166 2°46.616 -999 -999 -999 -999 -999
2007-06-07 09:42 51°15.147 2°46.918 -999 -999 -999 -999 -999
2007-06-07 09:43 51°15.132 2°47.226 -999 -999 -999 -999 -999
2007-06-07 09:44 51°15.113 2°47.524 -999 -999 -999 -999 -999
2007-06-07 09:45 51°15.093 2°47.821 -999 -999 -999 -999 -999
2007-06-07 09:46 51°15.073 2°48.127 -999 -999 -999 -999 -999
2007-06-07 09:47 51°15.053 2°48.426 -999 -999 -999 -999 -999
2007-06-07 09:48 51°15.033 2°48.725 -999 -999 -999 -999 -999
2007-06-07 09:49 51°15.012 2°49.024 -999 -999 -999 -999 -999
2007-06-07 09:50 51°14.991 2°49.323 -999 -999 -999 -999 -999
2007-06-07 09:51 51°14.97 2°49.622 -999 -999 -999 -999 -999
2007-06-07 09:52 51°14.95 2°49.923 -999 -999 -999 -999 -999
2007-06-07 09:53 51°14.929 2°50.228 -999 -999 -999 -999 -999
2007-06-07 09:54 51°14.908 2°50.524 -999 -999 -999 -999 -999
2007-06-07 09:55 51°14.886 2°50.828 -999 -999 -999 -999 -999
2007-06-07 09:56 51°14.866 2°51.118 -999 -999 -999 -999 -999
2007-06-07 09:57 51°14.843 2°51.426 -999 -999 -999 -999 -999
2007-06-07 09:58 51°14.821 2°51.715 -999 -999 -999 -999 -999
2007-06-07 09:59 51°14.8 2°51.968 -999 -999 -999 -999 -999
2007-06-07 10:00 51°14.782 2°52.159 -999 -999 -999 -999 -999
2007-06-07 10:01 51°14.763 2°52.304 -999 -999 -999 -999 -999
2007-06-07 10:02 51°14.744 2°52.441 -999 -999 -999 -999 -999
2007-06-07 10:03 51°14.725 2°52.571 -999 -999 -999 -999 -999
2007-06-07 10:04 51°14.705 2°52.707 -999 -999 -999 -999 -999
2007-06-07 10:05 51°14.687 2°52.838 -999 -999 -999 -999 -999
2007-06-07 10:06 51°14.668 2°52.971 -999 -999 -999 -999 -999
2007-06-07 10:07 51°14.649 2°53.101 -999 -999 -999 -999 -999
2007-06-07 10:08 51°14.631 2°53.209 -999 -999 -999 -999 -999
2007-06-07 10:09 51°14.613 2°53.316 -999 -999 -999 -999 -999
2007-06-07 10:10 51°14.595 2°53.432 -999 -999 -999 -999 -999
2007-06-07 10:11 51°14.577 2°53.562 -999 -999 -999 -999 -999
2007-06-07 10:12 51°14.557 2°53.729 -999 -999 -999 -999 -999
2007-06-07 10:13 51°14.533 2°53.901 -999 -999 -999 -999 -999
2007-06-07 10:14 51°14.511 2°54.045 -999 -999 -999 -999 -999
2007-06-07 10:15 51°14.495 2°54.18 -999 -999 -999 -999 -999
2007-06-07 10:16 51°14.482 2°54.282 -999 -999 -999 -999 -999
2007-06-07 10:17 51°14.469 2°54.327 -999 -999 -999 -999 -999
2007-06-07 10:18 51°14.453 2°54.345 -999 -999 -999 -999 -999
2007-06-07 10:19 51°14.439 2°54.358 -999 -999 -999 -999 -999
2007-06-07 10:20 51°14.44 2°54.542 -999 -999 -999 -999 -999
2007-06-07 10:21 51°14.418 2°54.842 -999 -999 -999 -999 -999
2007-06-07 10:22 51°14.333 2°55.14 -999 -999 -999 -999 -999
2007-06-07 10:23 51°14.187 2°55.359 -999 -999 -999 -999 -999
2007-06-07 10:24 51°14.044 2°55.474 -999 -999 -999 -999 -999
2007-06-07 10:25 51°13.921 2°55.564 -999 -999 -999 -999 -999
2007-06-07 10:26 51°13.811 2°55.65 -999 -999 -999 -999 -999
2007-06-07 10:27 51°13.736 2°55.749 -999 -999 -999 -999 -999
2007-06-07 10:28 51°13.676 2°55.856 -999 -999 -999 -999 -999
2007-06-07 10:29 51°13.632 2°55.951 -999 -999 -999 -999 -999
2007-06-07 10:30 51°13.604 2°56.037 -999 -999 -999 -999 -999
2007-06-07 10:31 51°13.589 2°56.106 -999 -999 -999 -999 -999
2007-06-07 10:32 51°13.583 2°56.127 -999 -999 -999 -999 -999